Location: Isola Pescaroli
(45.0500°N, 10.1667°E)
Time: 09:42:13
(UTC+00:00)

Cosmos 2278 Rocket - Pass Details

Date: 03 March 2021
Orbit: 841 x 845 km, 71.0° (Epoch: 18 April)

Event Time Altitude Azimuth Distance (km) Brightness Sun altitude
Rises 18:40:26 0° 341° (NNW) 3,414 5.7 -16.8°
Reaches altitude 10° 18:43:28 10° 357° (N) 2,475 4.8 -17.3°
Maximum altitude 18:47:50 22° 47° (NE) 1,763 3.5 -18.1°
Enters shadow 18:48:30 22° 58° (ENE) 1,782 3.5 -18.2°
